Tracking 33200 objects as of 18-Feb-2026
HD Live streaming from Space Station
objects crossing your sky now

FIREFLY-2

Track FIREFLY-2 now!
10-day predictions


NORAD ID: 62704
Int'l Code: 2025-009CZ
Perigee: 591.5 km
Apogee: 601.4 km
Inclination: 97.7 °
Period: 96.5 minutes
Semi major axis: 6967 km
RCS: Unknown
Launch date: January 14, 2025
Source: United States (US)
Launch site: AIR FORCE WESTERN TEST RANGE (AFWTR)
Your satellite tracking list
Your tracking list is empty




NASA's NSSDC Master Catalog

Two Line Element Set (TLE):
1 62704U 25009CZ  26048.48970854  .00001886  00000-0  18783-3 0  9993
2 62704  97.7113 128.9079 0007066 110.6090 249.5888 14.92760936 59466
Source of the keplerian elements: AFSPC